ON7SD-5 Weather Reports


time (UTC)temp
F
wind
direction
speed
knots
gust
knots
rain 1hr
in
rain 24hr
in
rain mn
in
humidity
%
barometer
mb
20260507151202 58 308 0.0 0.0 0.00 0.00 0.00 61 1014.9
20260507150702 59 308 0.0 0.9 0.00 0.00 0.00 61 1014.9
20260507150202 59 308 0.0 1.7 0.00 0.00 0.00 61 1014.9
20260507145702 59 308 0.0 1.7 0.00 0.00 0.00 61 1014.9
20260507145202 59 308 0.0 3.5 0.00 0.00 0.00 61 1014.9
20260507144702 59 307 0.9 2.6 0.00 0.00 0.00 60 1014.9
20260507144202 59 306 0.9 3.5 0.00 0.00 0.00 60 1014.9
20260507143702 59 306 0.0 2.6 0.00 0.00 0.00 59 1014.8
20260507143202 59 306 0.0 0.0 0.00 0.00 0.00 59 1014.8
20260507142702 60 306 0.0 0.0 0.00 0.00 0.00 58 1014.8
20260507142202 60 306 0.0 0.0 0.00 0.00 0.00 57 1014.8
20260507141702 60 306 0.0 0.0 0.00 0.00 0.00 58 1014.8
20260507141202 60 306 0.0 0.0 0.00 0.00 0.00 58 1014.9
20260507140702 60 306 0.0 2.6 0.00 0.00 0.00 57 1014.9
20260507140202 60 305 0.0 0.0 0.00 0.00 0.00 57 1014.9
20260507135702 60 305 0.0 0.0 0.00 0.00 0.00 58 1014.9
20260507135202 60 305 0.0 2.6 0.00 0.00 0.00 57 1014.9
20260507134702 60 304 0.0 3.5 0.00 0.00 0.00 57 1014.9
20260507134202 61 306 0.9 2.6 0.00 0.00 0.00 55 1014.9
20260507133702 61 306 0.9 3.5 0.00 0.00 0.00 54 1014.9
20260507133202 61 304 0.9 3.5 0.00 0.00 0.00 53 1014.9
20260507132702 62 304 0.0 4.3 0.00 0.00 0.00 52 1014.9
20260507132202 62 303 0.0 0.9 0.00 0.00 0.00 53 1014.9
20260507131702 62 303 0.0 3.5 0.00 0.00 0.00 53 1014.9
20260507131202 62 302 0.0 2.6 0.00 0.00 0.00 52 1014.9
20260507130702 63 302 0.0 0.0 0.00 0.00 0.00 50 1014.9
20260507130202 63 302 0.0 2.6 0.00 0.00 0.00 50 1014.9
20260507125702 64 302 0.0 0.9 0.00 0.00 0.00 49 1014.9
20260507125202 64 302 0.0 1.7 0.00 0.00 0.00 50 1014.9
20260507124702 65 302 0.0 0.0 0.00 0.00 0.00 49 1014.9
20260507124202 65 302 0.0 2.6 0.00 0.00 0.00 47 1014.9
20260507123702 65 302 0.9 0.0 0.00 0.00 0.00 50 1014.9
20260507123202 65 302 0.9 3.5 0.00 0.00 0.00 47 1015.0
20260507122702 65 302 0.9 3.5 0.00 0.00 0.00 50 1014.9
20260507122202 65 304 1.7 4.3 0.00 0.00 0.00 47 1014.9
20260507121702 65 304 1.7 4.3 0.00 0.00 0.00 49 1014.9
20260507121202 66 309 0.9 6.1 0.00 0.00 0.00 48 1014.9
20260507120702 64 1 0.9 3.5 0.00 0.00 0.00 49 1014.9
20260507120202 64 1 0.9 4.3 0.00 0.00 0.00 51 1014.9
20260507115702 64 1 0.9 3.5 0.00 0.00 0.00 51 1014.9
20260507115202 64 3 0.9 5.2 0.00 0.00 0.00 54 1015.0
20260507114702 64 8 0.9 3.5 0.00 0.00 0.00 53 1014.9
20260507114202 63 8 0.9 2.6 0.00 0.00 0.00 57 1014.9
20260507113702 62 8 0.9 3.5 0.00 0.00 0.00 56 1014.9
20260507113202 62 8 0.9 4.3 0.00 0.00 0.00 57 1015.0
20260507112702 61 8 0.9 2.6 0.00 0.00 0.00 58 1015.0
20260507112202 61 8 0.0 3.5 0.00 0.00 0.00 57 1015.0
20260507111702 61 8 0.0 2.6 0.00 0.00 0.00 58 1015.1
20260507111202 61 8 0.0 2.6 0.00 0.00 0.00 58 1015.1
20260507110702 61 8 0.0 2.6 0.00 0.00 0.00 59 1015.2
20260507110202 61 8 0.0 0.9 0.00 0.00 0.00 58 1015.2
20260507105702 61 8 0.0 0.9 0.00 0.00 0.00 60 1015.2
20260507105202 60 8 0.0 2.6 0.00 0.00 0.00 62 1015.2
20260507104702 60 8 0.0 0.9 0.00 0.00 0.00 62 1015.2
20260507104202 60 8 0.0 1.7 0.00 0.00 0.00 62 1015.3
20260507103702 59 8 0.0 1.7 0.00 0.00 0.00 62 1015.3
20260507103202 59 8 0.9 4.3 0.00 0.00 0.00 62 1015.4
20260507102702 59 8 0.0 3.5 0.00 0.00 0.00 63 1015.4
20260507102202 59 8 0.0 0.9 0.00 0.00 0.00 63 1015.5
20260507101702 59 8 0.0 1.7 0.00 0.00 0.00 66 1015.4
20260507101202 59 8 0.0 0.0 0.00 0.00 0.00 64 1015.4
20260507100702 59 8 0.0 0.0 0.00 0.00 0.00 65 1015.3
20260507100202 58 8 0.0 0.0 0.00 0.00 0.00 66 1015.3
20260507095702 58 8 0.0 0.0 0.00 0.00 0.00 68 1015.3
20260507095202 57 8 0.0 0.0 0.00 0.00 0.00 68 1015.3
20260507094702 57 8 0.0 0.0 0.00 0.00 0.00 69 1015.2
20260507094202 57 8 0.0 0.0 0.00 0.00 0.00 68 1015.3
20260507093702 57 8 0.0 0.0 0.00 0.00 0.00 68 1015.2
20260507093202 57 8 0.0 0.0 0.00 0.00 0.00 70 1015.2
20260507092702 57 8 0.0 0.0 0.00 0.00 0.00 72 1015.2
20260507092202 57 8 0.0 0.0 0.00 0.00 0.00 72 1015.2
20260507091702 56 8 0.0 2.6 0.00 0.00 0.00 72 1015.2
20260507091202 56 8 0.0 0.0 0.00 0.00 0.00 72 1015.2
20260507090702 56 8 0.0 0.0 0.00 0.00 0.00 76 1015.1
20260507090202 55 8 0.0 0.0 0.00 0.00 0.00 75 1015.1
20260507085702 55 8 0.0 0.0 0.00 0.00 0.00 73 1015.1
20260507085202 55 8 0.0 0.0 0.00 0.00 0.00 76 1015.0
20260507084702 54 8 0.0 0.0 0.00 0.00 0.00 77 1015.0
20260507084202 54 8 0.0 0.0 0.00 0.00 0.00 81 1015.0
20260507083702 54 8 0.0 0.0 0.00 0.00 0.00 82 1014.9
20260507083202 53 8 0.0 0.0 0.00 0.00 0.00 83 1014.9
20260507082702 53 8 0.0 0.0 0.00 0.00 0.00 83 1014.9
20260507082202 53 8 0.0 0.0 0.00 0.00 0.00 85 1014.9
20260507081702 53 8 0.0 0.0 0.00 0.00 0.00 86 1014.8
20260507081202 52 8 0.0 0.0 0.00 0.00 0.00 88 1014.8
20260507080702 52 8 0.0 0.0 0.00 0.00 0.00 88 1014.8
20260507080202 52 8 0.0 0.0 0.00 0.00 0.00 88 1014.8
20260507075702 51 8 0.0 0.0 0.00 0.00 0.00 90 1014.7
20260507075202 51 8 0.0 0.0 0.00 0.00 0.00 90 1014.8
20260507074702 51 8 0.0 0.0 0.00 0.00 0.00 90 1014.8
20260507074202 50 8 0.0 0.0 0.00 0.00 0.00 91 1014.8
20260507073702 50 8 0.0 0.0 0.00 0.00 0.00 93 1014.7
20260507073203 50 8 0.0 0.0 0.00 0.00 0.00 95 1014.7
20260507072703 50 8 0.0 0.0 0.00 0.00 0.00 95 1014.7
20260507072203 50 8 0.0 0.0 0.00 0.00 0.00 96 1014.6
20260507071703 50 8 0.0 0.0 0.00 0.00 0.00 96 1014.6
20260507071203 50 8 0.0 0.0 0.00 0.00 0.00 96 1014.5
20260507070703 50 8 0.0 0.0 0.00 0.00 0.00 96 1014.5
20260507070203 49 8 0.0 0.0 0.00 0.00 0.00 96 1014.5
20260507065703 49 8 0.0 0.0 0.00 0.00 0.00 96 1014.5
20260507065203 49 8 0.0 0.0 0.00 0.00 0.00 96 1014.5
20260507064703 49 8 0.0 0.0 0.00 0.00 0.00 96 1014.4
20260507064203 49 8 0.0 0.0 0.00 0.00 0.00 96 1014.4
20260507063703 49 8 0.0 0.0 0.00 0.00 0.00 96 1014.4
20260507063203 49 8 0.0 0.0 0.00 0.00 0.00 96 1014.4
20260507062703 48 8 0.0 0.0 0.00 0.00 0.00 96 1014.3
20260507062203 48 8 0.0 0.0 0.00 0.00 0.00 96 1014.3
20260507061703 48 8 0.0 0.0 0.00 0.00 0.00 96 1014.3
20260507061203 48 8 0.0 0.0 0.00 0.00 0.00 96 1014.2
20260507060703 48 8 0.0 0.0 0.00 0.00 0.00 96 1014.2
20260507060203 48 8 0.0 0.0 0.00 0.00 0.00 96 1014.2
20260507055703 48 8 0.0 0.0 0.00 0.00 0.00 96 1014.1
20260507055203 48 8 0.0 0.0 0.00 0.00 0.00 96 1014.1
20260507054703 48 8 0.0 0.0 0.00 0.00 0.00 96 1014.0
20260507054203 48 8 0.0 0.0 0.00 0.00 0.00 96 1014.1
20260507053703 48 8 0.0 0.0 0.00 0.00 0.00 96 1014.0
20260507053203 47 8 0.0 0.0 0.00 0.00 0.00 96 1013.9
20260507052703 47 8 0.0 0.0 0.00 0.00 0.00 96 1013.9
20260507052203 47 8 0.0 0.0 0.00 0.00 0.00 96 1013.8
20260507051703 47 8 0.0 0.0 0.00 0.00 0.00 96 1013.7
20260507051203 47 8 0.0 0.0 0.00 0.00 0.00 96 1013.7
20260507050703 47 8 0.0 0.0 0.00 0.00 0.00 96 1013.6
20260507050203 47 8 0.0 0.0 0.00 0.00 0.00 96 1013.5
20260507045703 47 8 0.0 0.0 0.00 0.00 0.00 96 1013.5
20260507045203 47 8 0.0 0.0 0.00 0.00 0.00 96 1013.5
20260507044703 47 8 0.0 0.0 0.00 0.00 0.00 96 1013.4
20260507044203 47 8 0.0 0.0 0.00 0.00 0.00 96 1013.5
20260507043703 47 8 0.0 0.0 0.00 0.00 0.00 96 1013.4
20260507043203 47 8 0.0 0.9 0.00 0.00 0.00 96 1013.4
20260507042703 47 8 0.0 0.0 0.00 0.00 0.00 96 1013.5
20260507042203 47 8 0.0 0.0 0.00 0.00 0.00 96 1013.4
20260507041703 47 8 0.0 0.0 0.00 0.00 0.00 96 1013.4
20260507041203 47 8 0.0 0.0 0.00 0.00 0.00 96 1013.3
20260507040703 47 8 0.0 0.0 0.00 0.00 0.00 96 1013.3
20260507040203 46 8 0.0 0.0 0.00 0.00 0.00 96 1013.3
20260507035703 46 8 0.0 0.0 0.00 0.00 0.00 96 1013.2
20260507035203 46 8 0.0 0.0 0.00 0.00 0.00 96 1013.1
20260507034703 46 8 0.0 0.0 0.00 0.00 0.00 96 1013.1
20260507034203 46 8 0.0 0.0 0.00 0.00 0.00 96 1013.1
20260507033703 46 8 0.0 0.0 0.00 0.00 0.00 96 1013.0
20260507033203 46 8 0.0 0.0 0.00 0.00 0.00 96 1013.0
20260507032703 46 8 0.0 0.0 0.00 0.00 0.00 96 1013.0
20260507032203 46 8 0.0 0.0 0.00 0.00 0.00 96 1013.0
20260507031703 46 8 0.0 0.0 0.00 0.00 0.00 96 1012.9
20260507031203 46 8 0.0 0.0 0.00 0.00 0.00 96 1012.9
20260507030703 45 8 0.0 0.0 0.00 0.00 0.00 96 1012.9
20260507030203 45 8 0.0 0.0 0.00 0.00 0.00 96 1012.9
20260507025703 45 8 0.0 0.0 0.00 0.00 0.00 96 1012.9
20260507025203 45 8 0.0 0.0 0.00 0.00 0.00 96 1012.8
20260507024703 45 8 0.0 0.0 0.00 0.00 0.00 96 1012.9
20260507024203 45 8 0.0 0.0 0.00 0.00 0.00 96 1012.8
20260507023703 45 8 0.0 0.0 0.00 0.00 0.00 96 1012.8
20260507023203 45 8 0.0 0.0 0.00 0.00 0.00 96 1012.8
20260507022703 45 8 0.0 0.0 0.00 0.00 0.00 96 1012.9
20260507022203 45 8 0.0 0.0 0.00 0.00 0.00 96 1012.8
20260507021703 45 8 0.0 0.0 0.00 0.00 0.00 96 1012.8
20260507021203 45 8 0.0 0.0 0.00 0.00 0.00 96 1012.7
20260507020703 45 8 0.0 0.0 0.00 0.00 0.00 96 1012.7
20260507020203 45 8 0.0 0.0 0.00 0.00 0.00 96 1012.6
20260507015703 44 8 0.0 0.0 0.00 0.00 0.00 96 1012.6
20260507015203 44 8 0.0 0.0 0.00 0.00 0.00 96 1012.6
20260507014703 44 8 0.0 0.0 0.00 0.00 0.00 96 1012.6
20260507014203 43 8 0.0 0.0 0.00 0.00 0.00 95 1012.6
20260507013703 43 8 0.0 0.0 0.00 0.00 0.00 95 1012.6
20260507013203 43 8 0.0 0.0 0.00 0.00 0.00 95 1012.6
20260507012703 43 8 0.0 0.0 0.00 0.00 0.00 95 1012.5
20260507012203 43 8 0.0 0.0 0.00 0.00 0.00 95 1012.5
20260507011703 43 8 0.0 0.0 0.00 0.00 0.00 95 1012.5
20260507011203 43 8 0.0 0.0 0.00 0.00 0.00 95 1012.5
20260507010703 43 8 0.0 0.0 0.00 0.00 0.00 95 1012.4
20260507010203 43 8 0.0 0.0 0.00 0.00 0.00 95 1012.5
20260507005703 43 8 0.0 0.0 0.00 0.00 0.00 95 1012.5
20260507005203 43 8 0.0 0.0 0.00 0.00 0.00 95 1012.4
20260507004703 43 8 0.0 0.0 0.00 0.00 0.00 95 1012.5
20260507004203 43 8 0.0 0.0 0.00 0.00 0.00 94 1012.5
20260507003703 43 8 0.0 0.0 0.00 0.00 0.00 94 1012.5
20260507003203 43 8 0.0 0.0 0.00 0.00 0.00 94 1012.5
20260507002703 43 8 0.0 0.0 0.00 0.00 0.00 94 1012.5
20260507002203 44 8 0.0 0.0 0.00 0.00 0.00 94 1012.5
20260507001703 44 8 0.0 0.0 0.00 0.00 0.00 94 1012.5
20260507001203 44 8 0.0 0.0 0.00 0.00 0.00 94 1012.5
20260507000703 44 8 0.0 0.0 0.00 0.00 0.00 94 1012.5
20260507000205 45 8 0.0 0.0 0.00 0.00 0.00 94 1012.5
20260506235703 45 8 0.0 0.0 0.00 0.00 0.00 94 1012.4
20260506235203 45 8 0.0 0.0 0.00 0.00 0.00 94 1012.4
20260506234703 45 8 0.0 0.0 0.00 0.00 0.00 94 1012.3
20260506234203 45 8 0.0 0.0 0.00 0.00 0.00 94 1012.3
20260506233703 45 8 0.0 0.0 0.00 0.00 0.00 93 1012.3
20260506233203 45 8 0.0 0.0 0.00 0.00 0.00 93 1012.3
20260506232703 45 8 0.0 0.0 0.00 0.00 0.00 93 1012.3
20260506232203 46 8 0.0 0.0 0.00 0.00 0.00 93 1012.2
20260506231703 45 8 0.0 0.0 0.00 0.00 0.00 93 1012.2
20260506231203 45 8 0.0 0.0 0.00 0.00 0.00 93 1012.2
20260506230703 45 8 0.0 0.0 0.00 0.00 0.00 92 1012.1
20260506230203 45 8 0.0 0.0 0.00 0.00 0.00 92 1012.1
20260506225703 46 8 0.0 0.0 0.00 0.00 0.00 92 1012.1
20260506225203 46 8 0.0 0.0 0.00 0.00 0.00 92 1012.1
20260506224703 46 8 0.0 0.0 0.00 0.00 0.00 91 1012.1
20260506224203 46 8 0.0 0.0 0.00 0.00 0.00 92 1012.0
20260506223703 47 8 0.0 0.0 0.00 0.00 0.00 92 1011.9
20260506223203 47 8 0.0 0.0 0.00 0.00 0.00 90 1011.9
20260506222703 47 8 0.0 0.0 0.00 0.00 0.00 91 1011.9
20260506222203 47 8 0.0 0.0 0.00 0.00 0.00 91 1011.9
20260506221703 48 8 0.0 0.0 0.00 0.00 0.00 90 1011.9
20260506221203 48 8 0.0 0.0 0.00 0.00 0.00 90 1011.8
20260506220703 48 8 0.0 0.0 0.00 0.00 0.00 89 1011.9
20260506220203 48 8 0.0 0.0 0.00 0.00 0.00 89 1011.9
20260506215703 48 8 0.0 0.0 0.00 0.00 0.00 88 1011.9
20260506215203 49 8 0.0 0.0 0.00 0.00 0.00 88 1011.8
20260506214703 49 8 0.0 0.0 0.00 0.00 0.00 88 1011.7
20260506214203 49 8 0.0 0.0 0.00 0.00 0.00 88 1011.8
20260506213703 50 8 0.0 0.0 0.00 0.00 0.00 88 1011.7
20260506213203 50 8 0.0 0.0 0.00 0.00 0.00 88 1011.8
20260506212703 50 8 0.0 0.0 0.00 0.00 0.00 88 1011.7
20260506212203 50 8 0.0 0.0 0.00 0.00 0.00 88 1011.7
20260506211703 50 8 0.0 0.0 0.00 0.00 0.00 87 1011.7
20260506211203 50 8 0.0 0.0 0.00 0.00 0.00 87 1011.6
20260506210703 50 8 0.0 0.0 0.00 0.00 0.00 87 1011.5
20260506210203 50 8 0.0 0.0 0.00 0.00 0.00 86 1011.5
20260506205703 51 8 0.0 0.0 0.00 0.00 0.00 86 1011.5
20260506205204 51 8 0.0 0.0 0.00 0.00 0.00 85 1011.5
20260506204704 51 8 0.0 0.0 0.00 0.00 0.00 85 1011.4
20260506204203 51 8 0.0 0.0 0.00 0.00 0.00 85 1011.4
20260506203703 51 8 0.0 0.0 0.00 0.00 0.00 84 1011.3
20260506203203 52 8 0.0 0.0 0.00 0.00 0.00 84 1011.3
20260506202704 52 8 0.0 0.0 0.00 0.00 0.00 84 1011.3
20260506202203 52 8 0.0 3.5 0.00 0.00 0.00 83 1011.2
20260506201703 52 8 0.0 0.0 0.00 0.00 0.00 83 1011.2
20260506201204 52 8 0.0 0.0 0.00 0.00 0.00 82 1011.1
20260506200704 52 8 0.0 0.0 0.00 0.00 0.00 81 1011.1
20260506200204 53 8 0.0 1.7 0.00 0.00 0.00 80 1011.1
20260506195704 53 8 0.0 2.6 0.00 0.00 0.00 80 1011.0
20260506195204 53 8 0.9 3.5 0.00 0.00 0.00 80 1011.0
20260506194704 53 8 0.9 3.5 0.00 0.00 0.00 79 1010.9
20260506194204 53 8 0.9 5.2 0.00 0.00 0.00 79 1010.9
20260506193704 53 8 0.9 5.2 0.00 0.00 0.00 78 1010.8
20260506193204 53 8 0.9 3.5 0.00 0.00 0.00 78 1010.8
20260506192704 54 8 0.9 6.1 0.00 0.00 0.00 77 1010.7
20260506192204 54 8 0.9 5.2 0.00 0.00 0.00 77 1010.6
20260506191704 54 8 0.9 2.6 0.00 0.00 0.00 76 1010.6
20260506191204 54 8 0.9 3.5 0.00 0.00 0.00 76 1010.6
20260506190704 54 9 1.7 6.1 0.00 0.00 0.00 75 1010.5
20260506190204 54 9 1.7 7.0 0.00 0.00 0.00 74 1010.5
20260506185704 54 4 1.7 5.2 0.00 0.00 0.00 73 1010.5
20260506185204 55 4 0.9 7.0 0.00 0.00 0.00 73 1010.5
20260506184704 55 1 0.9 1.7 0.00 0.00 0.00 72 1010.3
20260506184204 55 1 0.9 6.1 0.00 0.00 0.00 71 1010.4
20260506183704 56 1 0.9 4.3 0.00 0.00 0.00 71 1010.3
20260506183204 56 1 0.9 4.3 0.00 0.00 0.00 71 1010.2
20260506182704 57 2 0.9 5.2 0.00 0.00 0.00 70 1010.2
20260506182204 57 1 0.9 2.6 0.00 0.00 0.00 69 1010.2
20260506181704 56 1 1.7 6.1 0.00 0.00 0.00 68 1010.1
20260506181204 57 1 1.7 7.8 0.00 0.00 0.00 68 1010.0
20260506180704 57 14 0.9 6.1 0.00 0.00 0.00 68 1009.9
20260506180204 57 13 1.7 5.2 0.00 0.00 0.00 70 1009.8
20260506175704 56 13 1.7 6.1 0.00 0.00 0.00 70 1009.8
20260506175204 57 13 1.7 5.2 0.00 0.00 0.00 68 1009.8
20260506174704 57 11 2.6 5.2 0.00 0.00 0.00 69 1009.8
20260506174204 57 8 2.6 7.8 0.00 0.00 0.00 68 1009.6
20260506173704 58 8 1.7 7.8 0.00 0.00 0.00 68 1009.6
20260506173204 58 6 1.7 6.1 0.00 0.00 0.00 67 1009.5
20260506172704 58 7 2.6 10.4 0.00 0.00 0.00 67 1009.4
20260506172204 58 73 2.6 8.7 0.00 0.00 0.00 66 1009.4
20260506171704 58 21 3.5 8.7 0.00 0.00 0.00 65 1009.4
20260506171204 59 20 2.6 8.7 0.00 0.00 0.00 65 1009.3
20260506170704 59 3 2.6 8.7 0.00 0.00 0.00 63 1009.3
20260506170204 59 8 3.5 10.4 0.00 0.00 0.00 62 1009.2
20260506165704 59 5 3.5 8.7 0.00 0.00 0.00 59 1009.2
20260506165204 59 13 3.5 8.7 0.00 0.00 0.00 62 1009.1
20260506164704 59 10 2.6 7.8 0.00 0.00 0.00 60 1009.1
20260506164204 60 14 1.7 5.2 0.00 0.00 0.00 62 1009.1
20260506163704 59 15 2.6 7.8 0.00 0.00 0.00 64 1009.1
20260506163204 60 22 2.6 7.8 0.00 0.00 0.00 64 1009.1
20260506162704 60 7 1.7 7.0 0.00 0.00 0.00 64 1009.1
20260506162204 61 15 0.0 6.1 0.00 0.00 0.00 64 1009.0
20260506161704 60 15 1.7 4.3 0.00 0.00 0.00 62 1009.0
20260506161204 60 0 2.6 7.8 0.00 0.00 0.00 61 1009.0
20260506160704 61 17 2.6 6.1 0.00 0.00 0.00 61 1009.0
20260506160204 61 5 2.6 7.0 0.00 0.00 0.00 62 1009.0
20260506155704 61 13 3.5 10.4 0.00 0.00 0.00 61 1009.0
20260506155204 61 7 2.6 9.6 0.00 0.00 0.00 62 1009.0
20260506154704 62 29 2.6 6.1 0.00 0.00 0.00 62 1008.9
20260506154204 61 2 4.3 9.6 0.00 0.00 0.00 62 1008.9
20260506153704 61 8 2.6 8.7 0.00 0.00 0.00 63 1008.9
20260506153204 62 16 1.7 7.0 0.00 0.00 0.00 62 1009.0
20260506152704 61 24 1.7 6.1 0.00 0.00 0.00 63 1009.0
20260506152204 61 15 1.7 8.7 0.00 0.00 0.00 64 1008.9
20260506151704 60 7 1.7 7.8 0.00 0.00 0.00 65 1009.0